Date String (YYYY-MM-DD hh:mm:ss) UTC,Instrument flags,absolute air pressure of the measurement (hPa),sample flow rate (lpm),inlet stack bypass flow (lpm),air temperature of the measurement (°C),ambient temperature measured by the external sensor (°C),aerosol sample conditioner tube jacket temperature (°C),OPC LED temperature (°C),internal box temperature (°C),relative humidity of the measurement (%),span deviation,mass concentration of particles derived from Lorenz-Mie calculation of OPC scattering (μg/m³),mass concentration of particles derived from Lorenz-Mie calculation of OPC scattering (μg/m³),mass concentration of particles derived from Lorenz-Mie calculation of OPC scattering (μg/m³)
DateTimeUTC,F1_M11,P_M11,Q1_M11,Q2_M11,T1_M11,T2_M11,T3_M11,T4_M11,T5_M11,U1_M11,ZSPAN_M11,X0_M11,X2_M11,X1_M11
2023-09-17 00:00:00,SystemResetWarning,0835.4,5.00,000.00,028.1,027.2,000.0,036.3,029.9,19.8,0000.0,0007.72,0004.36,0003.96
2023-09-17 00:01:00,SystemResetWarning,0835.3,4.99,000.00,028.1,026.0,000.0,036.3,029.6,20.3,0000.0,0008.23,0004.38,0003.97
2023-09-17 00:02:00,SystemResetWarning,0835.3,5.01,000.00,028.0,024.3,000.0,036.2,029.0,20.5,0000.0,0008.83,0004.43,0003.98
2023-09-17 00:03:00,SystemResetWarning,0835.3,5.01,000.00,027.8,023.8,000.0,036.1,029.0,20.4,0000.0,0009.16,0004.44,0003.99
2023-09-17 00:04:00,SystemResetWarning,0835.4,5.00,000.00,027.8,024.1,000.0,036.1,029.0,20.4,0000.0,0009.04,0004.45,0003.99
2023-09-17 00:05:00,SystemResetWarning,0835.3,5.00,000.00,027.7,024.5,000.0,036.1,029.1,20.6,0000.0,0009.02,0004.46,0003.99
2023-09-17 00:06:00,SystemResetWarning,0835.3,5.00,000.00,027.7,024.9,000.0,036.1,029.2,21.0,0000.9,0009.00,0004.46,0003.99
2023-09-17 00:07:00,SystemResetWarning,0835.4,5.00,000.00,027.7,025.3,000.0,036.1,029.3,21.3,0000.5,0008.92,0004.42,0003.99
2023-09-17 00:08:00,SystemResetWarning,0835.4,5.00,000.00,027.7,025.6,000.0,036.1,029.4,21.0,0000.2,0008.88,0004.40,0003.98
2023-09-17 00:09:00,SystemResetWarning,0835.5,5.00,000.00,027.8,025.9,000.0,036.1,029.5,21.0,0001.1,0008.94,0004.41,0003.98
2023-09-17 00:10:00,SystemResetWarning,0835.5,4.99,000.00,027.8,026.2,000.0,036.1,029.5,21.5,0001.6,0009.01,0004.45,0004.00
2023-09-17 00:11:00,SystemResetWarning,0835.5,5.00,000.00,027.8,026.4,000.0,036.1,029.6,21.6,0002.1,0009.01,0004.45,0004.00
2023-09-17 00:12:00,SystemResetWarning,0835.5,5.00,000.00,027.9,026.6,000.0,036.1,029.7,21.4,0001.9,0008.31,0004.46,0004.00
2023-09-17 00:13:00,SystemResetWarning,0835.5,5.00,000.00,027.9,026.8,000.0,036.2,029.7,21.4,0001.1,0007.76,0004.42,0003.99
2023-09-17 00:14:00,SystemResetWarning,0835.5,5.00,000.00,028.0,026.9,000.0,036.2,029.8,21.4,0000.2,0007.42,0004.42,0003.99
2023-09-17 00:15:00,SystemResetWarning,0835.5,5.01,000.00,028.0,027.1,000.0,036.2,029.9,21.4,0000.1,0007.43,0004.42,0003.98
2023-09-17 00:16:00,SystemResetWarning,0835.5,5.00,000.00,028.1,027.2,000.0,036.2,029.9,21.6,0000.9,0007.70,0004.40,0003.99
2023-09-17 00:17:00,SystemResetWarning,0835.5,5.00,000.00,028.1,027.3,000.0,036.3,030.0,21.4,0001.2,0007.76,0004.42,0004.00
2023-09-17 00:18:00,SystemResetWarning,0835.5,4.99,000.00,028.2,027.1,000.0,036.3,029.9,20.6,0001.4,0007.79,0004.42,0004.00
2023-09-17 00:19:00,SystemResetWarning,0835.5,4.99,000.00,028.1,025.4,000.0,036.3,029.4,21.0,0001.6,0007.98,0004.42,0003.99
2023-09-17 00:20:00,SystemResetWarning,0835.4,5.00,000.00,028.0,024.0,000.0,036.2,029.0,21.5,0000.2,0008.28,0004.41,0003.99
2023-09-17 00:21:00,SystemResetWarning,0835.4,5.02,000.00,027.9,023.9,000.0,036.1,029.1,21.3,0000.1,0008.17,0004.37,0003.98
2023-09-17 00:22:00,SystemResetWarning,0835.5,5.00,000.00,027.8,024.2,000.0,036.2,029.1,21.4,0000.8,0008.18,0004.36,0003.97
2023-09-17 00:23:00,SystemResetWarning,0835.5,5.01,000.00,027.7,024.6,000.0,036.2,029.2,21.3,0001.1,0008.18,0004.35,0003.97
2023-09-17 00:24:00,SystemResetWarning,0835.5,5.00,000.00,027.7,025.0,000.0,036.1,029.3,21.3,0001.5,0008.39,0004.33,0003.96
2023-09-17 00:25:00,SystemResetWarning,0835.5,4.99,000.00,027.7,025.4,000.0,036.1,029.4,21.1,0000.7,0008.60,0004.33,0003.95
2023-09-17 00:26:00,SystemResetWarning,0835.5,5.00,000.00,027.8,025.8,000.0,036.1,029.4,21.4,0000.0,0008.66,0004.34,0003.94
2023-09-17 00:27:00,SystemResetWarning,0835.6,5.01,000.00,027.8,026.1,000.0,036.1,029.5,21.1,0000.0,0008.51,0004.33,0003.92
2023-09-17 00:28:00,SystemResetWarning,0835.5,4.99,000.00,027.8,026.3,000.0,036.2,029.6,20.9,0000.0,0008.60,0004.30,0003.88
2023-09-17 00:29:00,SystemResetWarning,0835.5,4.99,000.00,027.9,026.5,000.0,036.2,029.7,20.7,0000.0,0008.56,0004.29,0003.87
2023-09-17 00:30:00,SystemResetWarning,0835.5,5.00,000.00,027.9,026.7,000.0,036.2,029.7,20.8,0000.0,0008.49,0004.29,0003.86
2023-09-17 00:31:00,SystemResetWarning,0835.5,5.00,000.00,028.0,026.9,000.0,036.2,029.8,20.5,0000.0,0008.09,0004.25,0003.84
2023-09-17 00:32:00,SystemResetWarning,0835.5,5.00,000.00,028.0,027.0,000.0,036.2,029.8,20.6,0000.0,0008.15,0004.26,0003.83
2023-09-17 00:33:00,SystemResetWarning,0835.5,5.00,000.00,028.1,027.1,000.0,036.2,029.9,20.4,0000.0,0008.31,0004.28,0003.83
2023-09-17 00:34:00,SystemResetWarning,0835.5,5.00,000.00,028.1,027.2,000.0,036.3,029.9,20.2,0000.0,0008.29,0004.24,0003.82
2023-09-17 00:35:00,SystemResetWarning,0835.6,5.00,000.00,028.2,027.3,000.0,036.3,030.0,20.6,0000.0,0008.08,0004.24,0003.83
2023-09-17 00:36:00,SystemResetWarning,0835.5,5.00,000.00,028.2,027.2,000.0,036.3,030.0,20.6,0000.0,0008.30,0004.26,0003.84
2023-09-17 00:37:00,SystemResetWarning,0835.5,5.00,000.00,028.2,025.8,000.0,036.3,029.5,20.9,0000.0,0008.23,0004.25,0003.84
2023-09-17 00:38:00,SystemResetWarning,0835.5,5.00,000.00,028.1,024.8,000.0,036.3,029.4,21.1,0000.0,0008.16,0004.27,0003.84
2023-09-17 00:39:00,SystemResetWarning,0835.6,5.00,000.00,028.0,024.9,000.0,036.3,029.3,21.5,0000.0,0007.93,0004.30,0003.85
2023-09-17 00:40:00,SystemResetWarning,0835.5,5.00,000.00,028.0,025.1,000.0,036.3,029.4,21.9,0000.0,0007.89,0004.28,0003.85
2023-09-17 00:41:00,SystemResetWarning,0835.5,5.01,000.00,027.9,025.5,000.0,036.3,029.5,21.6,0000.0,0008.24,0004.26,0003.86
2023-09-17 00:42:00,SystemResetWarning,0835.5,4.98,000.00,028.0,025.8,000.0,036.3,029.6,21.2,0000.0,0008.24,0004.28,0003.88
2023-09-17 00:43:00,SystemResetWarning,0835.5,4.99,000.00,028.0,026.1,000.0,036.3,029.7,21.0,0000.0,0008.17,0004.26,0003.88
2023-09-17 00:44:00,SystemResetWarning,0835.6,5.01,000.00,028.0,026.3,000.0,036.3,029.7,21.0,0000.0,0008.12,0004.28,0003.89
2023-09-17 00:45:00,SystemResetWarning,0835.5,5.01,000.00,028.1,026.6,000.0,036.3,029.8,20.7,0000.0,0008.00,0004.29,0003.89
2023-09-17 00:46:00,SystemResetWarning,0835.5,5.00,000.00,028.1,026.8,000.0,036.3,029.8,20.4,0000.0,0008.01,0004.29,0003.89
2023-09-17 00:47:00,SystemResetWarning,0835.8,5.00,000.00,028.1,026.9,000.0,036.4,029.9,20.1,0000.0,0007.63,0004.30,0003.89
2023-09-17 00:48:00,SystemResetWarning,0835.5,4.99,000.00,028.2,027.1,000.0,036.4,030.0,20.1,0000.0,0007.59,0004.31,0003.89
2023-09-17 00:49:00,SystemResetWarning,0835.5,5.00,000.00,028.2,027.2,000.0,036.4,030.0,19.8,0000.0,0007.69,0004.33,0003.90
2023-09-17 00:50:00,SystemResetWarning,0835.7,4.99,000.00,028.2,026.2,000.0,036.4,029.7,19.6,0000.0,0007.69,0004.33,0003.91
2023-09-17 00:51:00,SystemResetWarning,0835.5,5.01,000.00,028.1,024.8,000.0,036.3,029.4,19.8,0000.0,0007.72,0004.36,0003.93
2023-09-17 00:52:00,SystemResetWarning,0835.5,5.01,000.00,028.0,024.7,000.0,036.3,029.4,19.9,0000.0,0007.57,0004.39,0003.94
2023-09-17 00:53:00,SystemResetWarning,0835.5,5.00,000.00,027.9,024.9,000.0,036.3,029.4,20.1,0000.0,0007.53,0004.43,0003.96
2023-09-17 00:54:00,SystemResetWarning,0835.5,5.00,000.00,027.9,025.2,000.0,036.3,029.4,20.2,0000.0,0007.72,0004.49,0003.97
2023-09-17 00:55:00,SystemResetWarning,0835.5,5.00,000.00,027.9,025.6,000.0,036.3,029.5,20.4,0000.0,0007.65,0004.47,0003.96
2023-09-17 00:56:00,SystemResetWarning,0835.7,5.00,000.00,027.9,025.9,000.0,036.3,029.6,20.5,0000.0,0007.69,0004.50,0003.97
2023-09-17 00:57:00,SystemResetWarning,0835.5,4.99,000.00,028.0,026.1,000.0,036.3,029.6,20.6,0000.0,0007.84,0004.53,0003.98
2023-09-17 00:58:00,SystemResetWarning,0835.5,5.00,000.00,028.0,026.4,000.0,036.3,029.7,20.9,0000.0,0007.86,0004.53,0003.98
2023-09-17 00:59:00,SystemResetWarning,0835.5,5.00,000.00,028.0,026.6,000.0,036.3,029.8,21.4,0000.0,0007.84,0004.50,0003.97
